Torna al catalogo

STARLINK-5297

AttivoComunicazioniVLEO
NORAD 54158·PAYLOAD·🇺🇸 United States

Lanciato Oct 28, 2022 da Vandenberg Space Force Base

Loading…

Prossimi Passaggi (prossime 24 ore)

TLE

AggiornatoSource: CelesTrak SupGP

Epoca: Sep 14, 2026, 21:25 UTC

1 54158C 22141B   26257.89284722  .00734210  00000+0  27695-1 0  2570
2 54158  53.1601 243.5047 0001246  86.8186 122.2925 15.26145366    19

Traccia STARLINK-5297 in tempo reale con AllMySat

Download on the App Store